Valdez Pioneer Field Airport (VDZ/PAVD)




Flight Aircraft Arriving
GRZ5355 SF34
PANC - Ted Stevens Anchorage International Airport
United StatesAlaska Anchorage, Alaska
Flight Aircraft Departing
GRZ5354 SF34
PANC - Ted Stevens Anchorage International Airport
United StatesAlaska Anchorage, Alaska
Airport Information
Location: Valdez, US
Coordinates: 61.1342 / -146.245
Elevation:
Time Offset:
Local Time:
UTC Time:
Jet A Price: $1.1/lbs

Current Weather
METAR: PAVD 270956Z AUTO 00000KT 1 1/2SM -SN BR BKN016 OVC026 M04/M04 A2981 RMK AO2 SLP094 P0000 T10391044 FZRANO
TAF: PAVD 270533Z 2706/2806 VRB04KT 1 1/2SM -SN BR BKN015 OVC025 FM271500 VRB03KT 5SM -SN BR BKN025 OVC040 FM280200 VRB03KT 2SM -SN BR OVC015 AMD LTD TO CLD VIS AND WIND

Recent Arrivals
Date Flight Type Depart
08/27/2020 GRZ5354 SF34 Ted Stevens Anchorage International Airport (PANC)
04/06/2020 GRZ5354 SF34 Ted Stevens Anchorage International Airport (PANC)
09/26/2019 GRZ554 SF34 Ted Stevens Anchorage International Airport (PANC)
Recent Departures
Date Flight Type Arrive
11/14/2020 GRZ5355 SF34 Ted Stevens Anchorage International Airport (PANC)
05/01/2020 GRZ5355 SF34 Ted Stevens Anchorage International Airport (PANC)
09/26/2019 GRZ555 SF34 Ted Stevens Anchorage International Airport (PANC)